Starlink 2106

operational
NORAD ID: 47386 Int'l Des: 2021-005 Owner: SPXS Country: US Constellation: starlink
LEOCIRCULARSTARLINK_TYPE

Starlink 2106について

説明を読み込み中...

リアルタイム位置

3D地球を読み込み中...

次回通過

高度履歴

Altitude vs Time

uPlot chart will show altitude changes over time

軌道要素

1 47386U 21005AP 25259.24713592 .00000149 00000-0 28907-4 0 9996
2 47386 53.0538 94.7213 0001358 88.6346 271.4799 15.06398836257172
Epoch: Sep 16, 2025 • Age: 15 hours

現在のステータス

高度 551.2 km
速度 7.59 km/s
衛星直下点 45.60°N, 85.58°W
打ち上げ日 Jan 20, 2021
運用期間 4.6 years
タイプ internet

技術仕様

分類 Payload
質量 260.00 kg
乾燥質量 248.00 kg
総質量 260.00 kg
長さ 0.20 m
直径 2.80 m
スパン 9.00 m
形状 Box + pan
製造者 SPXS
バスタイプ Starlink
フェーズステータス In Orbit
所有者/国 SPXS/US

大規模コンステレーション

Loading constellations...